FW6216 Weather Reports


Display with metric or nautical units.
time (UTC)temp
F
wind
direction
speed
MPH
gust
MPH
rain 1hr
in
rain 24hr
in
rain mn
in
humidity
%
barometer
mb
20260508064606 46 221 2.0 5.0 0.00 0.00 0.00 50 1018.3
20260508063030 47 226 1.0 3.0 0.00 0.00 0.00 47 1018.3
20260508061531 49 215 2.0 4.0 0.00 0.00 0.00 45 1018.3
20260508060110 49 173 3.0 5.0 0.00 0.00 0.00 43 1018.3
20260508054654 50 166 3.0 5.0 0.00 0.00 0.00 42 1018.2
20260508053031 52 199 1.0 4.0 0.00 0.00 0.00 40 1018.2
20260508051534 52 198 0.0 3.0 0.00 0.00 0.00 40 1018.1
20260508050034 52 228 1.0 5.0 0.00 0.00 0.00 39 1018.0
20260508044531 53 228 1.0 3.0 0.00 0.00 0.00 39 1017.9
20260508043031 54 234 0.0 4.0 0.00 0.00 0.00 38 1017.8
20260508040030 56 106 4.0 9.0 0.00 0.00 0.00 36 1017.4
20260508034609 57 104 5.0 10.0 0.00 0.00 0.00 35 1017.2
20260508033029 58 106 3.0 8.0 0.00 0.00 0.00 34 1017.1
20260508031533 60 91 5.0 7.0 0.00 0.00 0.00 33 1017.0
20260508030037 61 78 4.0 7.0 0.00 0.00 0.00 31 1016.9
20260508024534 63 71 7.0 12.0 0.00 0.00 0.00 30 1016.7
20260508023150 64 67 7.0 13.0 0.00 0.00 0.00 30 1016.6
20260508021700 65 64 8.0 12.0 0.00 0.00 0.00 30 1016.6
20260508020034 66 37 5.0 11.0 0.00 0.00 0.00 30 1016.7
20260508014641 66 37 6.0 11.0 0.00 0.00 0.00 30 1016.7
20260508013110 69 347 6.0 11.0 0.00 0.00 0.00 30 1016.6
20260508011530 70 329 7.0 13.0 0.00 0.00 0.00 29 1016.6
20260508010107 71 348 7.0 13.0 0.00 0.00 0.00 29 1016.7
20260508004529 72 340 9.0 14.0 0.00 0.00 0.00 29 1016.6
20260508003035 72 344 9.0 16.0 0.00 0.00 0.00 28 1016.5
20260508000108 73 326 10.0 20.0 0.00 0.00 0.00 27 1016.4
20260507233111 74 349 9.0 16.0 0.00 0.00 0.00 28 1016.5
20260507231607 74 346 7.0 13.0 0.00 0.00 0.00 31 1016.6
20260507230034 74 28 7.0 16.0 0.00 0.00 0.00 32 1016.8
20260507221535 72 31 7.0 13.0 0.00 0.00 0.00 34 1017.3
20260507214535 73 48 9.0 16.0 0.00 0.00 0.00 34 1017.6
20260507213036 73 20 6.0 12.0 0.00 0.00 0.00 35 1017.9
20260507210030 73 14 6.0 14.0 0.00 0.00 0.00 35 1018.0
20260507204532 73 39 5.0 10.0 0.00 0.00 0.00 35 1018.2
20260507203031 73 52 5.0 11.0 0.00 0.00 0.00 36 1018.4
20260507201647 72 41 6.0 11.0 0.00 0.00 0.00 36 1018.6
20260507200033 73 41 5.0 14.0 0.00 0.00 0.00 37 1018.7
20260507194651 72 34 6.0 12.0 0.00 0.00 0.00 38 1018.8
20260507193036 73 47 5.0 11.0 0.00 0.00 0.00 38 1018.9
20260507190034 71 18 5.0 11.0 0.00 0.00 0.00 43 1019.2
20260507184535 69 39 6.0 13.0 0.00 0.00 0.00 48 1019.3
20260507181530 67 36 7.0 14.0 0.00 0.00 0.00 51 1019.5
20260507180033 66 46 7.0 12.0 0.00 0.00 0.00 51 1019.4
20260507174530 65 59 7.0 15.0 0.00 0.00 0.00 52 1019.6
20260507173029 67 52 11.0 19.0 0.00 0.00 0.00 46 1019.4
20260507171533 68 338 5.0 10.0 0.00 0.00 0.00 43 1019.5
20260507170032 70 329 1.0 7.0 0.00 0.00 0.00 45 1019.6
20260507164652 70 211 2.0 7.0 0.00 0.00 0.00 48 1019.7
20260507163036 67 232 2.0 5.0 0.00 0.00 0.00 55 1019.8
20260507161539 62 257 1.0 4.0 0.00 0.00 0.00 65 1020.1
20260507160035 59 304 2.0 5.0 0.00 0.00 0.00 68 1020.3
20260507154529 59 287 1.0 3.0 0.00 0.00 0.00 68 1020.5
20260507153032 60 312 1.0 4.0 0.00 0.00 0.00 69 1020.6
20260507151534 59 172 1.0 4.0 0.00 0.00 0.00 72 1020.6
20260507150041 58 55 0.0 3.0 0.00 0.00 0.00 75 1020.7
20260507144537 57 134 0.0 5.0 0.00 0.00 0.00 81 1020.7
20260507143033 55 172 0.0 3.0 0.00 0.00 0.00 86 1020.7
20260507141530 53 202 0.0 3.0 0.00 0.00 0.00 89 1020.6
20260507140033 49 153 1.0 3.0 0.00 0.00 0.00 90 1020.3
20260507134536 46 165 1.0 4.0 0.00 0.00 0.00 90 1020.3
20260507133030 44 124 0.0 6.0 0.00 0.00 0.00 90 1020.3
20260507130032 44 123 1.0 6.0 0.00 0.00 0.00 89 1020.2
20260507121535 45 52 0.0 4.0 0.00 0.00 0.00 88 1020.0
20260507120045 46 51 0.0 4.0 0.00 0.00 0.00 88 1019.8
20260507114539 46 61 3.0 8.0 0.00 0.00 0.00 87 1019.7
20260507111649 46 79 3.0 8.0 0.00 0.00 0.00 85 1019.4
20260507110035 46 100 2.0 7.0 0.00 0.00 0.00 83 1019.4
20260507104535 47 102 3.0 8.0 0.00 0.00 0.00 81 1019.4
20260507103036 49 116 3.0 6.0 0.00 0.00 0.00 78 1019.4
20260507100042 51 197 1.0 4.0 0.00 0.00 0.00 73 1019.4
20260507094638 52 215 0.0 4.0 0.00 0.00 0.00 73 1019.3
20260507093037 52 158 2.0 5.0 0.00 0.00 0.00 72 1019.3
20260507091609 51 156 2.0 5.0 0.00 0.00 0.00 71 1019.4
20260507090036 51 173 3.0 5.0 0.00 0.00 0.00 69 1019.5
20260507083035 53 173 1.0 4.0 0.00 0.00 0.00 63 1019.6
20260507080034 53 174 4.0 7.0 0.00 0.00 0.00 61 1019.6
20260507074532 54 214 1.0 5.0 0.00 0.00 0.00 59 1019.4
20260507073032 55 209 2.0 6.0 0.00 0.00 0.00 57 1019.3
20260507070030 59 266 2.0 7.0 0.00 0.00 0.00 52 1019.3